This is the latest recevied weather packets stored in our database for station/object K7FLA. If no packets are shown the sender has not sent any weather packets the latest 10 day(s).
| Time | Temp. | Humidity | Pressure | Rain* | Wind** | Luminosity | Snow |
|---|---|---|---|---|---|---|---|
| 1788600055 | 15.56° C | 27% | 1095.4 hPa | 0 mm | - | 0 W/m² | - |
| 1788599772 | 15.56° C | 27% | 1095.4 hPa | 0 mm | - | 0 W/m² | - |
| 1788599449 | 16.11° C | 26% | 1095.3 hPa | 0 mm | - | 0 W/m² | - |
| 1788599142 | 16.11° C | 26% | 1095.5 hPa | 0 mm | - | 0 W/m² | - |
| 1788598838 | 16.11° C | 26% | 1095.4 hPa | 0 mm | - | 0 W/m² | - |
| 1788598536 | 16.11° C | 26% | 1095.6 hPa | 0 mm | - | 0 W/m² | - |
| 1788598232 | 16.11° C | 26% | 1095.6 hPa | 0 mm | - | 0 W/m² | - |
| 1788597931 | 16.11° C | 26% | 1095.6 hPa | 0 mm | - | 0 W/m² | - |
| 1788597627 | 16.11° C | 25% | 1095.7 hPa | 0 mm | - | 0 W/m² | - |
| 1788597321 | 16.11° C | 25% | 1095.6 hPa | 0 mm | - | 0 W/m² | - |
| 1788597018 | 16.11° C | 25% | 1096 hPa | 0 mm | - | 0 W/m² | - |
| 1788596713 | 16.11° C | 26% | 1096 hPa | 0 mm | - | 0 W/m² | - |
| 1788596409 | 16.11° C | 26% | 1096 hPa | 0 mm | - | 0 W/m² | - |
| 1788596097 | 16.11° C | 26% | 1096.1 hPa | 0 mm | - | 0 W/m² | - |
| 1788595796 | 16.11° C | 27% | 1096.1 hPa | 0 mm | - | 0 W/m² | - |
| 1788595492 | 16.11° C | 27% | 1096.1 hPa | 0 mm | - | 0 W/m² | - |
| 1788595190 | 16.11° C | 27% | 1096.1 hPa | 0 mm | - | 0 W/m² | - |
| 1788594885 | 16.67° C | 28% | 1096.2 hPa | 0 mm | - | 0 W/m² | - |
| 1788594604 | 16.67° C | 27% | 1096 hPa | 0 mm | - | 0 W/m² | - |
| 1788594280 | 16.67° C | 28% | 1096.2 hPa | 0 mm | - | 0 W/m² | - |
| 1788593975 | 16.67° C | 26% | 1095.9 hPa | 0 mm | - | 0 W/m² | - |
| 1788593670 | 17.22° C | 28% | 1096 hPa | 0 mm | - | 0 W/m² | - |
| 1788593365 | 17.22° C | 27% | 1096 hPa | 0 mm | - | 0 W/m² | - |
| 1788593060 | 17.22° C | 22% | 1095.9 hPa | 0 mm | - | 0 W/m² | - |
| 1788592756 | 17.22° C | 21% | 1096 hPa | 0 mm | - | 0 W/m² | - |
* Rain latest hour (hover to see other rain measurements)
** Current wind speed in m/s (hover to see current wind gust speed)